LOT255 EPKK-EPWA

Flight info

Callsign LOT255
Flight time 0h 34m
Altitude 25000
Route POBOK M985 KOTEK M866 LOGDA
Aircraft B738/M-SDE2E3FGHIRWXY/LB1

Departure

Time 2026-05-01 09:14
Airport Kraków John Paul II International Airport (EPKK)

Arrival

Time 2026-05-01 09:49
Airport Warsaw Chopin Airport (EPWA)
Time Latitude Longitude Altitude Speed Heading
2026-05-01 08:58 50.07333 19.80209 790 ft 0 kts 167°
2026-05-01 09:07 50.07343 19.80206 813 ft 2 kts 167°
2026-05-01 09:08 50.07359 19.80200 789 ft 2 kts 168°
2026-05-01 09:08 50.07375 19.80195 789 ft 2 kts 168°
2026-05-01 09:08 50.07391 19.80190 789 ft 2 kts 169°
2026-05-01 09:08 50.07407 19.80184 789 ft 2 kts 149°
2026-05-01 09:09 50.07418 19.80165 789 ft 2 kts 99°
2026-05-01 09:09 50.07417 19.80140 789 ft 2 kts 79°
2026-05-01 09:09 50.07416 19.80131 789 ft 0 kts 76°
2026-05-01 09:11 50.07418 19.80145 789 ft 4 kts 76°
2026-05-01 09:11 50.07428 19.80219 789 ft 10 kts 78°
2026-05-01 09:11 50.07450 19.80354 789 ft 14 kts 56°
2026-05-01 09:12 50.07538 19.80412 789 ft 14 kts 17°
2026-05-01 09:12 50.07628 19.80411 789 ft 13 kts 348°
2026-05-01 09:12 50.07715 19.80381 789 ft 13 kts 347°
2026-05-01 09:12 50.07800 19.80352 789 ft 12 kts 347°
2026-05-01 09:13 50.07892 19.80320 789 ft 15 kts 347°
2026-05-01 09:13 50.08000 19.80278 788 ft 15 kts 334°
2026-05-01 09:13 50.08004 19.80129 789 ft 21 kts 258°
2026-05-01 09:13 50.07912 19.79478 789 ft 102 kts 258°
2026-05-01 09:14 50.07713 19.78029 812 ft 168 kts 257°
2026-05-01 09:14 50.07456 19.76132 1484 ft 186 kts 257°
2026-05-01 09:14 50.07164 19.74146 2515 ft 186 kts 257°
2026-05-01 09:14 50.06873 19.72113 3316 ft 204 kts 261°
2026-05-01 09:15 50.06573 19.69806 3630 ft 230 kts 261°
2026-05-01 09:15 50.06291 19.67257 4192 ft 247 kts 272°
2026-05-01 09:15 50.06689 19.64708 5135 ft 244 kts 304°
2026-05-01 09:15 50.07931 19.62935 5907 ft 249 kts 339°
2026-05-01 09:16 50.09637 19.62357 6706 ft 258 kts 353°
2026-05-01 09:16 50.11445 19.61962 7441 ft 266 kts 352°
2026-05-01 09:16 50.13269 19.61570 8172 ft 263 kts 360°
2026-05-01 09:17 50.16423 19.63928 8349 ft 262 kts 43°
2026-05-01 09:17 50.17726 19.65913 8352 ft 260 kts 41°
2026-05-01 09:17 50.20398 19.69742 9554 ft 259 kts 40°
2026-05-01 09:18 50.21748 19.71616 10500 ft 260 kts 40°
2026-05-01 09:18 50.24662 19.75614 11172 ft 303 kts 40°
2026-05-01 09:19 50.27969 19.80130 12411 ft 321 kts 40°
2026-05-01 09:19 50.29649 19.82426 13295 ft 322 kts 40°
2026-05-01 09:19 50.31346 19.84744 14097 ft 325 kts 40°
2026-05-01 09:20 50.34199 19.88646 15302 ft 329 kts 40°
2026-05-01 09:20 50.37662 19.93393 16794 ft 333 kts 40°
2026-05-01 09:21 50.41165 19.98203 18228 ft 337 kts 40°
2026-05-01 09:21 50.42935 20.00637 18905 ft 339 kts 40°
2026-05-01 09:21 50.46436 20.05462 20599 ft 329 kts 41°
2026-05-01 09:22 50.49841 20.10168 22175 ft 324 kts 41°
2026-05-01 09:22 50.53194 20.14809 23785 ft 318 kts 41°
2026-05-01 09:23 50.54841 20.17093 24467 ft 315 kts 41°
2026-05-01 09:23 50.58192 20.21520 25283 ft 314 kts 32°
2026-05-01 09:24 50.62237 20.24011 25338 ft 316 kts 20°
2026-05-01 09:24 50.64362 20.25019 25341 ft 320 kts 20°
2026-05-01 09:24 50.68484 20.27557 25331 ft 316 kts 26°
2026-05-01 09:25 50.72491 20.30365 25326 ft 315 kts 26°
2026-05-01 09:25 50.76466 20.33146 25138 ft 316 kts 26°
2026-05-01 09:26 50.78472 20.34542 24821 ft 314 kts 26°
2026-05-01 09:26 50.82432 20.37286 24131 ft 308 kts 26°
2026-05-01 09:26 50.84387 20.38640 23751 ft 306 kts 26°
2026-05-01 09:27 50.88245 20.41312 22966 ft 300 kts 26°
2026-05-01 09:27 50.90144 20.42628 22619 ft 296 kts 26°
2026-05-01 09:27 50.92023 20.43932 22280 ft 293 kts 26°
2026-05-01 09:28 50.93880 20.45221 21924 ft 290 kts 26°
2026-05-01 09:28 50.95721 20.46501 21576 ft 287 kts 25°
2026-05-01 09:28 50.97542 20.47767 21243 ft 285 kts 26°
2026-05-01 09:28 50.99351 20.49027 20921 ft 283 kts 26°
2026-05-01 09:29 51.02929 20.51521 20253 ft 279 kts 25°
2026-05-01 09:29 51.04701 20.52757 19932 ft 277 kts 25°
2026-05-01 09:30 51.08208 20.55208 19288 ft 274 kts 25°
2026-05-01 09:30 51.09950 20.56427 18964 ft 273 kts 25°
2026-05-01 09:30 51.13411 20.58852 18292 ft 271 kts 25°
2026-05-01 09:31 51.15132 20.60059 17943 ft 269 kts 25°
2026-05-01 09:31 51.16837 20.61256 17618 ft 267 kts 25°
2026-05-01 09:31 51.20217 20.63631 16992 ft 263 kts 25°
2026-05-01 09:32 51.21887 20.64807 16682 ft 261 kts 25°
2026-05-01 09:32 51.25192 20.67134 16078 ft 258 kts 25°
2026-05-01 09:32 51.26801 20.68269 15780 ft 257 kts 25°
2026-05-01 09:33 51.28435 20.69413 15483 ft 256 kts 23°
2026-05-01 09:33 51.30106 20.70389 15181 ft 255 kts 20°
2026-05-01 09:33 51.33461 20.72192 14602 ft 254 kts 20°
2026-05-01 09:34 51.35128 20.73110 14303 ft 253 kts 20°
2026-05-01 09:34 51.36791 20.74026 13994 ft 252 kts 20°
2026-05-01 09:34 51.40101 20.75849 13354 ft 250 kts 20°
2026-05-01 09:35 51.41743 20.76754 13069 ft 249 kts 20°
2026-05-01 09:35 51.45000 20.78550 12499 ft 246 kts 20°
2026-05-01 09:35 51.46619 20.79443 12209 ft 245 kts 20°
2026-05-01 09:36 51.48225 20.80330 11922 ft 244 kts 20°
2026-05-01 09:36 51.49825 20.81215 11647 ft 243 kts 20°
2026-05-01 09:36 51.51420 20.82096 11368 ft 242 kts 19°
2026-05-01 09:36 51.53012 20.82977 11085 ft 242 kts 19°
2026-05-01 09:37 51.54599 20.83855 10814 ft 241 kts 19°
2026-05-01 09:37 51.57756 20.85603 10415 ft 235 kts 19°
2026-05-01 09:37 51.59300 20.86459 10151 ft 235 kts 19°
2026-05-01 09:38 51.62386 20.88173 9606 ft 234 kts 19°
2026-05-01 09:38 51.63927 20.89031 9332 ft 234 kts 19°
2026-05-01 09:38 51.65461 20.89885 9080 ft 233 kts 19°
2026-05-01 09:39 51.68514 20.91584 8559 ft 231 kts 19°
2026-05-01 09:39 51.70033 20.92431 8299 ft 231 kts 19°
2026-05-01 09:39 51.71546 20.93277 8042 ft 230 kts 19°
2026-05-01 09:40 51.73054 20.94116 7792 ft 229 kts 19°
2026-05-01 09:40 51.76065 20.95801 7292 ft 229 kts 19°
2026-05-01 09:40 51.77575 20.96644 7042 ft 230 kts 19°
2026-05-01 09:41 51.79086 20.97488 6790 ft 230 kts 19°
2026-05-01 09:41 51.82160 20.99213 6010 ft 241 kts 18°
2026-05-01 09:41 51.83757 21.00109 5661 ft 246 kts 19°
2026-05-01 09:42 51.85354 21.01004 5392 ft 246 kts 18°
2026-05-01 09:42 51.86974 21.01917 5261 ft 241 kts 18°
2026-05-01 09:42 51.90067 21.03657 5027 ft 230 kts 18°
2026-05-01 09:43 51.92983 21.05321 4756 ft 222 kts 18°
2026-05-01 09:43 51.94436 21.06131 4580 ft 220 kts 18°
2026-05-01 09:43 51.95892 21.06947 4315 ft 222 kts 19°
2026-05-01 09:44 51.98800 21.08590 3797 ft 216 kts 18°
2026-05-01 09:44 52.00203 21.09378 3586 ft 212 kts 18°
2026-05-01 09:44 52.01623 21.09798 3266 ft 208 kts 349°
2026-05-01 09:45 52.02888 21.08791 3188 ft 204 kts 326°
2026-05-01 09:45 52.05249 21.06640 2675 ft 181 kts 332°
2026-05-01 09:45 52.06348 21.05649 2441 ft 181 kts 333°
2026-05-01 09:46 52.07450 21.04765 2246 ft 170 kts 333°
2026-05-01 09:46 52.08476 21.03828 1976 ft 165 kts 332°
2026-05-01 09:46 52.09435 21.02976 1735 ft 150 kts 332°
2026-05-01 09:46 52.10330 21.02187 1539 ft 146 kts 332°
2026-05-01 09:47 52.11224 21.01388 1355 ft 148 kts 331°
2026-05-01 09:47 52.12119 21.00572 1151 ft 147 kts 332°
2026-05-01 09:47 52.13001 20.99795 950 ft 142 kts 333°
2026-05-01 09:47 52.13864 20.99065 724 ft 140 kts 334°
2026-05-01 09:48 52.14730 20.98313 560 ft 141 kts 332°
2026-05-01 09:48 52.15591 20.97567 373 ft 139 kts 332°
2026-05-01 09:48 52.16381 20.96872 338 ft 116 kts 333°
2026-05-01 09:48 52.16957 20.96377 334 ft 61 kts 332°
2026-05-01 09:49 52.17270 20.96244 336 ft 38 kts
2026-05-01 09:49 52.17389 20.96283 333 ft 14 kts 46°
2026-05-01 09:49 52.17436 20.96412 335 ft 13 kts 61°
2026-05-01 09:49 52.17467 20.96545 331 ft 13 kts 98°
2026-05-01 09:50 52.17402 20.96629 334 ft 12 kts 152°
2026-05-01 09:50 52.17327 20.96694 335 ft 12 kts 152°
2026-05-01 09:50 52.17259 20.96752 332 ft 10 kts 152°
2026-05-01 09:50 52.17237 20.96800 333 ft 5 kts 79°
2026-05-01 09:51 52.17252 20.96848 332 ft 5 kts 60°
2026-05-01 09:51 52.17266 20.96887 333 ft 2 kts 60°
2026-05-01 09:51 52.17272 20.96906 332 ft 0 kts 62°